Location: Cheb
(50.0670°N, 12.3670°E)
Time: 04:46:55
(UTC+02:00)

ISS - Pass Details

Date: 31 March 2019
Orbit: 408 x 410 km, 51.6° (Epoch: 21 April)

Event Time Altitude Azimuth Distance (km) Brightness Sun altitude
Rises 22:36:30 0° 287° (WNW) 2,338 1.0 -25.9°
Reaches altitude 10° 22:38:39 10° 280° (W) 1,474 -0.3 -26.1°
Enters shadow 22:39:41 18° 273° (W) 1,086 -1.2 -26.2°
